QPF
0.28 0.27 0.24 0.21 0.19 0.17 0.11 0.09 0.06 0.04 0.02 0.01 0.01 0.01 0.01 0.03 0.04 0.07 0.11 0.07 0.03 0.02 0.03 0.04 0.05 0.07 0.06 0.06 0.06 0.08 0.08 0.08 0.08 0.06 0.05 0.05 0.04 0.04 0.04 0.04 0.03 0.03 0.03
0.42 0.38 0.35 0.30 0.20 0.19 0.15 0.10 0.06 0.05 0.04 0.05 0.03 0.02 0.02 0.03 0.03 0.05 0.08 0.06 0.02 0.02 0.02 0.05 0.08 0.08 0.07 0.08 0.08 0.07 0.08 0.09 0.09 0.06 0.05 0.04 0.04 0.04 0.04 0.04 0.04 0.03 0.03
0.52 0.52 0.47 0.38 0.24 0.18 0.20 0.16 0.10 0.09 0.07 0.06 0.06 0.04 0.04 0.03 0.04 0.07 0.11 0.13 0.09 0.04 0.03 0.04 0.05 0.05 0.06 0.08 0.09 0.09 0.09 0.09 0.07 0.07 0.07 0.06 0.05 0.04 0.03 0.03 0.03 0.03 0.03
0.49 0.53 0.47 0.39 0.30 0.24 0.23 0.23 0.17 0.13 0.13 0.11 0.11 0.08 0.07 0.07 0.06 0.08 0.10 0.12 0.14 0.12 0.07 0.03 0.03 0.04 0.05 0.06 0.07 0.07 0.07 0.06 0.05 0.05 0.05 0.05 0.06 0.05 0.04 0.03 0.03 0.02 0.02
0.45 0.45 0.42 0.41 0.34 0.29 0.25 0.20 0.21 0.18 0.18 0.15 0.10 0.10 0.08 0.07 0.09 0.09 0.09 0.10 0.10 0.11 0.08 0.05 0.03 0.03 0.04 0.05 0.05 0.05 0.04 0.04 0.04 0.04 0.05 0.05 0.05 0.04 0.04 0.04 0.03 0.03 0.03
0.35 0.41 0.39 0.34 0.32 0.32 0.31 0.26 0.24 0.22 0.21 0.18 0.13 0.15 0.15 0.11 0.09 0.08 0.07 0.08 0.07 0.05 0.08 0.10 0.10 0.05 0.03 0.03 0.03 0.04 0.03 0.03 0.05 0.06 0.06 0.07 0.06 0.06 0.05 0.05 0.05 0.05 0.04
0.26 0.28 0.30 0.31 0.32 0.32 0.30 0.27 0.25 0.22 0.21 0.19 0.22 0.22 0.19 0.12 0.08 0.07 0.06 0.06 0.06 0.05 0.06 0.07 0.09 0.09 0.06 0.03 0.01 0.02 0.02 0.03 0.04 0.05 0.05 0.05 0.05 0.06 0.07 0.06 0.05 0.05 0.05
0.23 0.24 0.28 0.32 0.31 0.32 0.31 0.28 0.24 0.24 0.21 0.19 0.21 0.22 0.19 0.12 0.08 0.05 0.04 0.04 0.04 0.04 0.03 0.04 0.06 0.06 0.06 0.04 0.02 0.01 0.01 0.02 0.02 0.03 0.04 0.04 0.05 0.05 0.05 0.05 0.06 0.06 0.05
0.16 0.16 0.17 0.23 0.24 0.23 0.24 0.24 0.22 0.23 0.21 0.18 0.19 0.21 0.21 0.17 0.10 0.06 0.04 0.04 0.05 0.05 0.03 0.03 0.03 0.03 0.03 0.03 0.02 0.02 0.01 0.01 0.01 0.01 0.01 0.02 0.02 0.02 0.03 0.03 0.04 0.05 0.05
0.20 0.17 0.15 0.17 0.18 0.18 0.19 0.19 0.18 0.19 0.21 0.19 0.18 0.20 0.18 0.17 0.13 0.08 0.06 0.05 0.05 0.04 0.03 0.03 0.02 0.01 0.02 0.02 0.02 0.02 0.01 0.01 0.01 0.01 0.01 0.01 0.01 0.02 0.02 0.03 0.04 0.05 0.06
0.24 0.24 0.20 0.19 0.18 0.17 0.16 0.17 0.17 0.17 0.18 0.19 0.16 0.14 0.11 0.10 0.10 0.09 0.06 0.04 0.03 0.02 0.02 0.02 0.01 0.01 0.01 0.01 0.01 0.01 0.01 0.01 0.01 0.01 0.01 0.01 0.01 0.02 0.02 0.02 0.03 0.03 0.03
0.25 0.25 0.23 0.20 0.17 0.15 0.15 0.15 0.14 0.13 0.13 0.14 0.13 0.10 0.09 0.07 0.06 0.07 0.07 0.06 0.04 0.03 0.02 0.02 0.01 0.01 0.01 0.01 0.01 0.01 0.01 0.01 0.01 0.00 0.00 0.00 0.00 0.00 0.01 0.01 0.01 0.01 0.02
0.22 0.19 0.17 0.16 0.16 0.14 0.12 0.11 0.10 0.10 0.10 0.10 0.09 0.08 0.07 0.06 0.05 0.04 0.04 0.04 0.04 0.04 0.03 0.03 0.03 0.02 0.02 0.02 0.02 0.02 0.01 0.01 0.00 0.00 0.00 0.00 0.00 0.00 0.00 0.00 0.00 0.00 0.00
0.22 0.19 0.15 0.13 0.13 0.13 0.11 0.09 0.07 0.06 0.05 0.05 0.04 0.03 0.03 0.03 0.03 0.03 0.03 0.03 0.03 0.04 0.04 0.03 0.03 0.02 0.02 0.01 0.02 0.03 0.01 0.00 0.00 0.00 0.00 0.00 0.00 0.00 0.00 0.00 0.00 0.00 0.00
0.22 0.19 0.15 0.13 0.11 0.10 0.09 0.07 0.06 0.05 0.04 0.03 0.03 0.02 0.02 0.02 0.02 0.02 0.02 0.02 0.02 0.03 0.03 0.02 0.02 0.02 0.01 0.01 0.02 0.02 0.01 0.00 0.00 0.00 0.00 0.00 0.00 0.00 0.00 0.00 0.00 0.00 0.00
0.15 0.14 0.13 0.11 0.10 0.09 0.08 0.07 0.06 0.04 0.03 0.02 0.01 0.01 0.01 0.01 0.00 0.00 0.01 0.01 0.01 0.01 0.01 0.01 0.01 0.01 0.00 0.00 0.01 0.01 0.01 0.01 0.00 0.00 0.00 0.00 0.00 0.00 0.00 0.00 0.00 0.00 0.00
0.10 0.10 0.10 0.09 0.08 0.08 0.07 0.06 0.05 0.04 0.03 0.02 0.02 0.01 0.01 0.00 0.00 0.00 0.00 0.00 0.00 0.00 0.01 0.01 0.01 0.01 0.01 0.00 0.00 0.01 0.01 0.01 0.00 0.00 0.00 0.00 0.00 0.00 0.00 0.00 0.00 0.00 0.00
0.12 0.12 0.11 0.11 0.10 0.09 0.08 0.06 0.04 0.03 0.02 0.02 0.02 0.01 0.01 0.01 0.00 0.00 0.00 0.00 0.00 0.00 0.00 0.01 0.01 0.01 0.01 0.00 0.00 0.00 0.00 0.00 0.00 0.00 0.00 0.00 0.00 0.00 0.00 0.00 0.00 0.00 0.00
0.11 0.10 0.10 0.11 0.11 0.10 0.09 0.07 0.04 0.03 0.02 0.02 0.01 0.01 0.01 0.01 0.01 0.01 0.01 0.01 0.01 0.00 0.01 0.01 0.01 0.01 0.00 0.01 0.01 0.01 0.00 0.00 0.00 0.00 0.00 0.00 0.00 0.00 0.00 0.00 0.00 0.00 0.00
0.07 0.06 0.06 0.06 0.06 0.06 0.05 0.04 0.03 0.02 0.02 0.01 0.01 0.01 0.01 0.01 0.01 0.01 0.01 0.01 0.01 0.01 0.01 0.01 0.01 0.01 0.02 0.01 0.02 0.02 0.01 0.01 0.01 0.00 0.00 0.00 0.00 0.00 0.00 0.00 0.00 0.00 0.00
0.04 0.04 0.05 0.04 0.04 0.03 0.02 0.01 0.01 0.01 0.01 0.01 0.01 0.01 0.00 0.00 0.01 0.01 0.01 0.01 0.01 0.01 0.02 0.02 0.03 0.03 0.04 0.04 0.03 0.01 0.01 0.02 0.02 0.01 0.01 0.01 0.01 0.01 0.02 0.00 0.00 0.00 0.00
0.03 0.03 0.03 0.03 0.02 0.01 0.01 0.01 0.01 0.01 0.02 0.02 0.02 0.01 0.00 0.00 0.00 0.01 0.00 0.00 0.00 0.01 0.01 0.02 0.04 0.05 0.06 0.05 0.03 0.02 0.02 0.02 0.03 0.02 0.02 0.02 0.01 0.02 0.03 0.01 0.00 0.00 0.00
0.02 0.02 0.02 0.01 0.01 0.00 0.00 0.00 0.00 0.01 0.03 0.03 0.03 0.02 0.01 0.01 0.00 0.01 0.00 0.01 0.01 0.00 0.00 0.00 0.03 0.04 0.05 0.04 0.02 0.02 0.03 0.03 0.04 0.04 0.03 0.05 0.04 0.04 0.02 0.00 0.00 0.00 0.00
0.03 0.03 0.03 0.02 0.01 0.00 0.00 0.00 0.00 0.02 0.03 0.02 0.02 0.02 0.03 0.03 0.01 0.00 0.01 0.03 0.04 0.03 0.01 0.01 0.02 0.03 0.02 0.01 0.01 0.01 0.02 0.05 0.08 0.07 0.04 0.05 0.04 0.04 0.02 0.01 0.00 0.00 0.00
0.03 0.03 0.03 0.03 0.02 0.00 0.00 0.00 0.00 0.02 0.03 0.02 0.01 0.01 0.02 0.02 0.00 0.00 0.02 0.05 0.06 0.05 0.01 0.00 0.00 0.00 0.00 0.00 0.00 0.00 0.03 0.06 0.07 0.07 0.04 0.03 0.04 0.04 0.04 0.03 0.01 0.00 0.00
0.03 0.02 0.02 0.03 0.02 0.01 0.00 0.00 0.01 0.02 0.04 0.04 0.04 0.03 0.00 0.00 0.00 0.00 0.02 0.04 0.03 0.03 0.02 0.02 0.02 0.02 0.02 0.01 0.01 0.01 0.05 0.06 0.06 0.06 0.05 0.03 0.04 0.04 0.04 0.03 0.03 0.02 0.02
MSLP
1015.03 1015.21 1015.28 1015.28 1015.24 1015.21 1015.19 1015.20 1015.25 1015.32 1015.41 1015.50 1015.61 1015.72 1015.87 1016.06 1016.29 1016.56 1016.88 1017.21 1017.55 1017.86 1018.14 1018.38 1018.57 1018.73 1018.86 1018.98 1019.09 1019.20 1019.31 1019.42 1019.53 1019.64 1019.75 1019.88 1020.02 1020.17 1020.33 1020.49 1020.64 1020.77 1020.88
1014.99 1015.17 1015.22 1015.21 1015.16 1015.10 1015.06 1015.07 1015.12 1015.22 1015.36 1015.54 1015.73 1015.95 1016.18 1016.43 1016.70 1016.99 1017.28 1017.57 1017.85 1018.11 1018.35 1018.58 1018.78 1018.96 1019.14 1019.30 1019.46 1019.60 1019.73 1019.86 1019.97 1020.08 1020.20 1020.33 1020.47 1020.63 1020.79 1020.95 1021.09 1021.20 1021.28
1014.87 1015.03 1015.09 1015.09 1015.05 1015.01 1015.00 1015.03 1015.13 1015.28 1015.50 1015.77 1016.06 1016.38 1016.70 1017.02 1017.33 1017.62 1017.88 1018.12 1018.34 1018.54 1018.74 1018.94 1019.13 1019.34 1019.54 1019.74 1019.94 1020.12 1020.28 1020.42 1020.56 1020.68 1020.80 1020.94 1021.08 1021.23 1021.38 1021.53 1021.65 1021.74 1021.80
1014.66 1014.81 1014.88 1014.90 1014.90 1014.90 1014.95 1015.04 1015.21 1015.45 1015.76 1016.12 1016.53 1016.95 1017.37 1017.76 1018.11 1018.41 1018.66 1018.85 1019.02 1019.17 1019.31 1019.47 1019.64 1019.84 1020.05 1020.27 1020.49 1020.70 1020.89 1021.05 1021.20 1021.33 1021.46 1021.59 1021.73 1021.87 1022.00 1022.12 1022.22 1022.28 1022.30
1014.40 1014.53 1014.60 1014.66 1014.71 1014.78 1014.90 1015.07 1015.32 1015.65 1016.05 1016.53 1017.04 1017.57 1018.09 1018.56 1018.97 1019.29 1019.54 1019.72 1019.84 1019.94 1020.04 1020.14 1020.28 1020.45 1020.65 1020.86 1021.08 1021.30 1021.49 1021.67 1021.82 1021.96 1022.08 1022.20 1022.32 1022.43 1022.54 1022.62 1022.68 1022.71 1022.70
1014.14 1014.25 1014.34 1014.43 1014.54 1014.68 1014.86 1015.10 1015.43 1015.83 1016.33 1016.89 1017.51 1018.14 1018.75 1019.31 1019.79 1020.17 1020.44 1020.62 1020.73 1020.80 1020.86 1020.92 1021.01 1021.13 1021.29 1021.48 1021.67 1021.87 1022.06 1022.23 1022.37 1022.50 1022.62 1022.71 1022.80 1022.87 1022.93 1022.96 1022.98 1022.97 1022.93
1013.98 1014.09 1014.20 1014.32 1014.46 1014.65 1014.88 1015.17 1015.54 1016.00 1016.55 1017.19 1017.88 1018.59 1019.29 1019.93 1020.49 1020.93 1021.25 1021.46 1021.58 1021.65 1021.68 1021.71 1021.75 1021.83 1021.94 1022.08 1022.24 1022.40 1022.56 1022.71 1022.84 1022.95 1023.04 1023.10 1023.14 1023.16 1023.16 1023.14 1023.10 1023.04 1022.98
1014.03 1014.14 1014.26 1014.40 1014.57 1014.77 1015.02 1015.32 1015.70 1016.17 1016.74 1017.40 1018.12 1018.89 1019.64 1020.35 1020.98 1021.49 1021.87 1022.13 1022.29 1022.38 1022.41 1022.42 1022.45 1022.48 1022.55 1022.64 1022.75 1022.87 1023.00 1023.12 1023.22 1023.31 1023.37 1023.39 1023.39 1023.35 1023.29 1023.21 1023.11 1023.00 1022.90
1014.34 1014.48 1014.61 1014.76 1014.93 1015.12 1015.34 1015.62 1015.96 1016.39 1016.93 1017.56 1018.28 1019.04 1019.81 1020.55 1021.22 1021.78 1022.23 1022.55 1022.76 1022.89 1022.95 1022.98 1023.00 1023.02 1023.05 1023.11 1023.18 1023.27 1023.36 1023.46 1023.54 1023.60 1023.64 1023.63 1023.59 1023.51 1023.39 1023.25 1023.09 1022.94 1022.80
1014.94 1015.10 1015.26 1015.40 1015.55 1015.70 1015.87 1016.08 1016.35 1016.71 1017.17 1017.73 1018.38 1019.10 1019.84 1020.56 1021.24 1021.82 1022.30 1022.67 1022.94 1023.12 1023.23 1023.30 1023.34 1023.37 1023.40 1023.44 1023.50 1023.56 1023.64 1023.72 1023.80 1023.85 1023.88 1023.86 1023.79 1023.68 1023.52 1023.34 1023.14 1022.94 1022.77
1015.76 1015.96 1016.12 1016.26 1016.38 1016.47 1016.57 1016.70 1016.88 1017.14 1017.49 1017.95 1018.50 1019.12 1019.78 1020.44 1021.07 1021.63 1022.12 1022.52 1022.82 1023.06 1023.23 1023.35 1023.43 1023.50 1023.55 1023.60 1023.66 1023.73 1023.81 1023.90 1023.98 1024.05 1024.08 1024.08 1024.02 1023.90 1023.73 1023.52 1023.29 1023.06 1022.86
1016.69 1016.92 1017.10 1017.22 1017.30 1017.34 1017.38 1017.42 1017.51 1017.66 1017.91 1018.24 1018.67 1019.16 1019.70 1020.26 1020.80 1021.30 1021.75 1022.15 1022.48 1022.75 1022.97 1023.15 1023.29 1023.40 1023.50 1023.58 1023.66 1023.75 1023.84 1023.95 1024.06 1024.15 1024.22 1024.25 1024.22 1024.13 1023.97 1023.77 1023.54 1023.29 1023.06
1017.61 1017.86 1018.04 1018.15 1018.19 1018.20 1018.18 1018.16 1018.18 1018.25 1018.40 1018.62 1018.92 1019.28 1019.68 1020.10 1020.52 1020.93 1021.31 1021.66 1021.99 1022.28 1022.54 1022.77 1022.97 1023.13 1023.27 1023.39 1023.50 1023.61 1023.73 1023.86 1024.00 1024.13 1024.25 1024.34 1024.36 1024.32 1024.21 1024.04 1023.82 1023.58 1023.34
1018.41 1018.66 1018.83 1018.93 1018.96 1018.94 1018.90 1018.85 1018.83 1018.85 1018.93 1019.06 1019.26 1019.49 1019.75 1020.04 1020.33 1020.62 1020.91 1021.20 1021.49 1021.77 1022.05 1022.31 1022.55 1022.76 1022.93 1023.08 1023.21 1023.34 1023.47 1023.62 1023.79 1023.97 1024.14 1024.28 1024.37 1024.40 1024.36 1024.24 1024.06 1023.85 1023.62
1019.03 1019.26 1019.41 1019.49 1019.52 1019.50 1019.46 1019.42 1019.40 1019.41 1019.46 1019.55 1019.67 1019.81 1019.96 1020.11 1020.28 1020.45 1020.64 1020.86 1021.10 1021.36 1021.63 1021.90 1022.16 1022.38 1022.58 1022.73 1022.87 1022.99 1023.13 1023.28 1023.46 1023.67 1023.88 1024.07 1024.23 1024.33 1024.35 1024.30 1024.18 1024.01 1023.81
1019.46 1019.65 1019.78 1019.86 1019.89 1019.89 1019.88 1019.87 1019.88 1019.92 1019.98 1020.05 1020.13 1020.21 1020.29 1020.35 1020.42 1020.49 1020.59 1020.74 1020.92 1021.14 1021.39 1021.65 1021.90 1022.12 1022.31 1022.45 1022.56 1022.66 1022.77 1022.90 1023.07 1023.27 1023.49 1023.72 1023.92 1024.08 1024.17 1024.19 1024.13 1024.02 1023.85
1019.76 1019.90 1020.01 1020.08 1020.12 1020.15 1020.18 1020.22 1020.28 1020.36 1020.45 1020.54 1020.63 1020.69 1020.72 1020.74 1020.74 1020.75 1020.79 1020.87 1021.01 1021.19 1021.41 1021.64 1021.86 1022.06 1022.20 1022.31 1022.37 1022.42 1022.48 1022.56 1022.68 1022.85 1023.06 1023.29 1023.51 1023.70 1023.83 1023.90 1023.90 1023.84 1023.72
1020.00 1020.10 1020.19 1020.26 1020.32 1020.37 1020.43 1020.52 1020.62 1020.75 1020.88 1021.01 1021.11 1021.19 1021.22 1021.22 1021.21 1021.19 1021.20 1021.25 1021.34 1021.49 1021.67 1021.87 1022.05 1022.20 1022.30 1022.34 1022.35 1022.33 1022.32 1022.33 1022.38 1022.50 1022.66 1022.85 1023.06 1023.25 1023.41 1023.50 1023.54 1023.53 1023.46
1020.25 1020.34 1020.42 1020.49 1020.55 1020.62 1020.71 1020.82 1020.95 1021.10 1021.27 1021.43 1021.57 1021.67 1021.73 1021.75 1021.75 1021.74 1021.74 1021.78 1021.86 1021.98 1022.13 1022.28 1022.42 1022.52 1022.56 1022.55 1022.49 1022.40 1022.31 1022.24 1022.22 1022.26 1022.35 1022.49 1022.65 1022.81 1022.95 1023.06 1023.12 1023.13 1023.09
1020.56 1020.65 1020.74 1020.81 1020.88 1020.95 1021.04 1021.14 1021.28 1021.44 1021.62 1021.80 1021.96 1022.09 1022.19 1022.25 1022.28 1022.30 1022.32 1022.37 1022.44 1022.54 1022.66 1022.78 1022.88 1022.93 1022.92 1022.86 1022.74 1022.59 1022.43 1022.29 1022.20 1022.15 1022.17 1022.23 1022.33 1022.44 1022.54 1022.62 1022.68 1022.70 1022.69
1020.93 1021.04 1021.14 1021.23 1021.30 1021.36 1021.43 1021.51 1021.62 1021.76 1021.92 1022.10 1022.28 1022.44 1022.58 1022.68 1022.75 1022.81 1022.86 1022.92 1022.99 1023.08 1023.17 1023.26 1023.31 1023.32 1023.28 1023.17 1023.02 1022.82 1022.62 1022.43 1022.27 1022.16 1022.10 1022.09 1022.11 1022.15 1022.20 1022.24 1022.27 1022.28 1022.28
1021.31 1021.46 1021.59 1021.70 1021.76 1021.81 1021.84 1021.89 1021.96 1022.06 1022.19 1022.35 1022.53 1022.71 1022.87 1023.01 1023.12 1023.21 1023.29 1023.36 1023.42 1023.49 1023.56 1023.61 1023.62 1023.60 1023.53 1023.40 1023.23 1023.02 1022.80 1022.58 1022.38 1022.22 1022.10 1022.01 1021.96 1021.93 1021.92 1021.91 1021.90 1021.90 1021.89
1021.66 1021.86 1022.02 1022.14 1022.22 1022.24 1022.25 1022.26 1022.28 1022.33 1022.43 1022.57 1022.73 1022.91 1023.08 1023.24 1023.38 1023.49 1023.58 1023.64 1023.70 1023.74 1023.76 1023.77 1023.76 1023.70 1023.61 1023.48 1023.30 1023.10 1022.88 1022.66 1022.45 1022.26 1022.09 1021.96 1021.84 1021.75 1021.67 1021.62 1021.57 1021.54 1021.52
1021.92 1022.17 1022.37 1022.52 1022.60 1022.62 1022.61 1022.59 1022.57 1022.59 1022.66 1022.76 1022.91 1023.08 1023.26 1023.42 1023.56 1023.67 1023.75 1023.79 1023.81 1023.81 1023.79 1023.75 1023.70 1023.62 1023.51 1023.38 1023.22 1023.03 1022.83 1022.63 1022.42 1022.22 1022.03 1021.86 1021.70 1021.56 1021.43 1021.32 1021.24 1021.18 1021.14
1022.10 1022.38 1022.62 1022.79 1022.90 1022.93 1022.92 1022.88 1022.85 1022.85 1022.89 1022.98 1023.11 1023.26 1023.43 1023.58 1023.70 1023.79 1023.84 1023.84 1023.81 1023.75 1023.68 1023.59 1023.49 1023.38 1023.26 1023.13 1022.98 1022.82 1022.65 1022.47 1022.28 1022.09 1021.89 1021.69 1021.50 1021.32 1021.15 1021.01 1020.89 1020.81 1020.75
1022.20 1022.52 1022.79 1022.99 1023.12 1023.18 1023.19 1023.16 1023.14 1023.13 1023.16 1023.24 1023.35 1023.48 1023.62 1023.75 1023.84 1023.89 1023.89 1023.84 1023.75 1023.64 1023.50 1023.36 1023.22 1023.08 1022.94 1022.81 1022.67 1022.53 1022.38 1022.22 1022.05 1021.86 1021.66 1021.45 1021.24 1021.03 1020.84 1020.67 1020.53 1020.42 1020.36
Thickness
5736 5735 5734 5733 5734 5734 5733 5733 5734 5736 5737 5737 5737 5737 5737 5735 5733 5729 5725 5723 5722 5721 5719 5717 5715 5712 5710 5708 5706 5704 5702 5700 5698 5696 5694 5693 5691 5689 5688 5686 5686 5685 5684
5732 5730 5730 5731 5732 5733 5732 5732 5733 5734 5734 5733 5733 5732 5731 5730 5727 5725 5722 5719 5717 5716 5714 5713 5710 5708 5706 5704 5702 5700 5698 5696 5693 5691 5689 5687 5686 5684 5682 5681 5680 5679 5678
5729 5727 5725 5725 5727 5729 5729 5728 5728 5730 5728 5728 5727 5726 5725 5724 5722 5719 5717 5714 5711 5709 5708 5706 5704 5703 5700 5698 5696 5694 5692 5690 5688 5686 5683 5681 5679 5677 5676 5674 5673 5672 5671
5725 5723 5721 5719 5721 5722 5722 5722 5722 5722 5721 5720 5719 5719 5718 5717 5715 5713 5711 5709 5706 5703 5700 5698 5697 5695 5693 5691 5689 5687 5685 5683 5681 5679 5677 5674 5672 5670 5668 5667 5666 5664 5663
5720 5718 5716 5716 5717 5717 5717 5717 5716 5716 5712 5711 5711 5711 5710 5710 5708 5706 5703 5701 5699 5696 5693 5690 5689 5687 5685 5683 5681 5679 5677 5675 5672 5670 5668 5666 5664 5662 5660 5658 5657 5656 5655
5714 5713 5711 5711 5712 5712 5711 5711 5710 5709 5706 5705 5704 5701 5701 5701 5699 5697 5695 5693 5691 5688 5685 5682 5680 5677 5676 5674 5672 5670 5668 5665 5663 5661 5659 5657 5655 5653 5651 5649 5648 5646 5645
5708 5708 5708 5707 5706 5706 5706 5705 5702 5700 5698 5697 5693 5689 5688 5690 5688 5687 5686 5684 5682 5679 5677 5674 5671 5668 5665 5663 5661 5660 5657 5655 5653 5651 5649 5647 5644 5642 5640 5639 5637 5636 5634
5701 5702 5702 5700 5700 5700 5699 5698 5696 5693 5691 5690 5686 5680 5674 5673 5675 5676 5675 5674 5672 5670 5667 5664 5661 5658 5656 5653 5650 5648 5646 5644 5642 5640 5638 5636 5634 5632 5630 5628 5626 5625 5623
5693 5694 5694 5693 5693 5693 5691 5691 5690 5687 5683 5682 5682 5678 5672 5666 5663 5662 5663 5661 5661 5659 5657 5654 5651 5647 5645 5643 5640 5636 5634 5632 5630 5628 5626 5624 5623 5620 5618 5616 5614 5612 5610
5683 5685 5685 5685 5684 5684 5683 5682 5681 5680 5677 5675 5674 5673 5671 5668 5660 5652 5651 5651 5651 5649 5646 5645 5642 5638 5635 5632 5629 5625 5623 5621 5618 5616 5614 5612 5610 5608 5606 5604 5601 5599 5597
5672 5673 5674 5675 5674 5673 5673 5672 5671 5671 5670 5668 5666 5665 5663 5660 5658 5650 5642 5640 5639 5638 5636 5634 5632 5629 5626 5623 5619 5615 5612 5609 5606 5604 5602 5599 5597 5595 5593 5590 5588 5586 5584
5659 5660 5661 5661 5661 5661 5662 5661 5660 5660 5659 5658 5657 5656 5653 5651 5648 5645 5638 5633 5630 5628 5627 5625 5623 5620 5617 5614 5609 5605 5602 5598 5595 5592 5589 5586 5584 5581 5579 5577 5574 5572 5570
5646 5646 5647 5648 5648 5649 5650 5651 5649 5649 5648 5646 5645 5644 5644 5643 5641 5639 5634 5628 5623 5619 5617 5616 5615 5611 5608 5603 5599 5595 5591 5587 5584 5581 5578 5574 5571 5568 5566 5563 5561 5558 5556
5634 5634 5635 5636 5636 5637 5638 5639 5638 5637 5636 5635 5635 5634 5634 5632 5632 5629 5626 5621 5616 5612 5610 5608 5606 5602 5598 5594 5589 5586 5581 5577 5574 5570 5567 5563 5560 5557 5554 5551 5548 5545 5543
5622 5622 5622 5623 5624 5625 5625 5626 5627 5625 5624 5624 5623 5622 5622 5621 5620 5620 5619 5615 5609 5604 5600 5599 5597 5592 5587 5583 5579 5576 5572 5568 5565 5560 5556 5553 5550 5546 5543 5540 5537 5534 5531
5611 5610 5610 5610 5611 5612 5613 5614 5614 5613 5612 5611 5611 5610 5609 5609 5609 5609 5608 5605 5602 5597 5591 5589 5587 5581 5576 5573 5569 5566 5563 5561 5557 5552 5548 5544 5541 5537 5534 5531 5528 5524 5521
5599 5599 5599 5599 5599 5600 5601 5602 5602 5602 5601 5599 5599 5598 5597 5597 5597 5597 5595 5593 5590 5587 5580 5578 5576 5570 5566 5563 5559 5557 5555 5553 5549 5545 5540 5536 5533 5529 5526 5522 5519 5515 5511
5588 5588 5588 5588 5588 5588 5589 5590 5591 5590 5589 5588 5587 5587 5586 5586 5584 5583 5582 5580 5577 5575 5570 5566 5564 5561 5558 5555 5551 5549 5548 5546 5542 5538 5534 5530 5526 5522 5518 5514 5511 5507 5503
5577 5577 5577 5577 5577 5576 5577 5578 5579 5578 5577 5577 5576 5575 5574 5573 5571 5570 5569 5568 5566 5564 5560 5557 5554 5552 5550 5547 5544 5542 5540 5538 5536 5533 5528 5524 5520 5516 5512 5508 5504 5500 5496
5566 5566 5566 5566 5566 5565 5565 5566 5567 5567 5566 5566 5565 5564 5562 5560 5558 5557 5557 5555 5553 5551 5549 5546 5544 5542 5539 5538 5535 5531 5530 5529 5527 5526 5523 5520 5516 5512 5507 5502 5499 5494 5490
5557 5556 5555 5555 5555 5553 5552 5552 5556 5557 5556 5555 5554 5553 5551 5548 5546 5545 5544 5541 5540 5538 5537 5535 5532 5530 5527 5525 5523 5522 5520 5519 5519 5519 5516 5514 5511 5507 5503 5499 5494 5490 5486
5547 5547 5546 5545 5544 5541 5540 5542 5543 5545 5546 5545 5544 5543 5540 5539 5536 5534 5533 5530 5528 5527 5524 5523 5521 5518 5516 5515 5514 5513 5512 5510 5508 5510 5509 5507 5507 5503 5500 5496 5491 5487 5482
5538 5537 5536 5534 5532 5530 5531 5532 5533 5535 5536 5536 5535 5534 5534 5529 5527 5525 5524 5522 5520 5518 5515 5513 5511 5509 5509 5508 5506 5505 5504 5503 5502 5504 5504 5501 5502 5499 5497 5493 5489 5484 5479
5530 5529 5528 5526 5524 5522 5522 5522 5523 5527 5528 5528 5527 5525 5521 5518 5515 5514 5515 5515 5514 5512 5510 5506 5506 5505 5504 5502 5500 5499 5499 5499 5500 5501 5500 5496 5497 5495 5495 5491 5487 5482 5478
5522 5522 5521 5519 5516 5514 5513 5514 5515 5519 5519 5519 5517 5514 5512 5508 5505 5505 5507 5506 5506 5504 5503 5502 5501 5500 5500 5498 5495 5493 5494 5493 5493 5496 5497 5494 5493 5492 5491 5488 5485 5481 5477
5518 5517 5515 5513 5510 5507 5506 5506 5507 5511 5511 5510 5507 5504 5501 5499 5498 5497 5497 5497 5496 5495 5496 5497 5497 5498 5497 5496 5494 5490 5490 5489 5489 5489 5492 5490 5489 5488 5486 5486 5484 5481 5477